KC4WTI Weather Reports


time (UTC)temp
C
wind
direction
speed
KPH
gust
KPH
rain 1hr
cm
rain 24hr
cm
rain mn
cm
humidity
%
barometer
mb
20260906131445 29 192 1.6 8.0 0.00 0.00 0.00 72 1013.3
20260906131202 28 183 1.6 4.8 0.00 0.00 0.00 73 1013.3
20260906130656 28 199 0.0 4.8 0.00 0.00 0.00 74 1013.2
20260906130155 28 180 0.0 4.8 0.00 0.00 0.00 75 1013.3
20260906125420 27 167 1.6 4.8 0.00 0.00 0.00 78 1013.3
20260906124915 27 167 0.0 4.8 0.00 0.00 0.00 80 1013.2
20260906124634 26 187 1.6 4.8 0.00 0.00 0.00 81 1013.2
20260906123906 26 67 3.2 9.7 0.00 0.00 0.00 82 1013.1
20260906123406 26 126 1.6 9.7 0.00 0.00 0.00 83 1013.1
20260906122905 25 90 1.6 3.2 0.00 0.00 0.00 85 1013.1
20260906122407 25 153 0.0 3.2 0.00 0.00 0.00 87 1013.0
20260906121907 24 153 0.0 3.2 0.00 0.00 0.00 88 1013.0
20260906121405 24 153 1.6 3.2 0.00 0.00 0.00 88 1012.9
20260906121352 24 153 0.0 3.2 0.00 0.00 0.00 89 1012.9
20260906120405 24 153 0.0 1.6 0.00 0.00 0.00 89 1012.8
20260906115903 24 153 0.0 1.6 0.00 0.00 0.00 89 1012.7
20260906115404 24 153 0.0 0.0 0.00 0.00 0.00 88 1012.7
20260906114901 24 153 0.0 1.6 0.00 0.00 0.00 88 1012.6
20260906114358 24 153 0.0 1.6 0.00 0.00 0.00 88 1012.5
20260906114121 24 153 0.0 1.6 0.00 0.00 0.00 88 1012.4
20260906113358 24 153 0.0 1.6 0.00 0.00 0.00 88 1012.3
20260906112858 24 153 0.0 1.6 0.00 0.00 0.00 88 1012.2
20260906112357 24 153 0.0 0.0 0.00 0.00 0.00 88 1012.1
20260906111857 24 153 0.0 0.0 0.00 0.00 0.00 88 1012.0
20260906111628 24 153 0.0 0.0 0.00 0.00 0.00 88 1011.9
20260906110859 24 153 0.0 0.0 0.00 0.00 0.00 87 1011.9
20260906110621 24 153 0.0 0.0 0.00 0.00 0.00 87 1011.8
20260906105858 24 153 0.0 0.0 0.00 0.00 0.00 87 1011.8
20260906105358 24 153 0.0 0.0 0.00 0.00 0.00 87 1011.6
20260906104857 24 153 0.0 0.0 0.00 0.00 0.00 87 1011.5
20260906104358 24 153 0.0 0.0 0.00 0.00 0.00 87 1011.5
20260906103856 24 153 0.0 0.0 0.00 0.00 0.00 87 1011.5
20260906103400 24 153 0.0 0.0 0.00 0.00 0.00 88 1011.6
20260906102857 24 153 0.0 1.6 0.00 0.00 0.00 88 1011.6
20260906102357 24 153 0.0 1.6 0.00 0.00 0.00 87 1011.6
20260906101855 24 153 0.0 1.6 0.00 0.00 0.00 88 1011.6
20260906101352 25 153 0.0 1.6 0.00 0.00 0.00 88 1011.6
20260906100852 25 153 0.0 1.6 0.00 0.00 0.00 87 1011.6
20260906100349 25 153 0.0 1.6 0.00 0.00 0.00 87 1011.6
20260906095849 25 153 0.0 1.6 0.00 0.00 0.00 87 1011.6
20260906095611 25 153 0.0 1.6 0.00 0.00 0.00 87 1011.7
20260906094851 25 153 0.0 1.6 0.00 0.00 0.00 87 1011.7
20260906094351 25 153 0.0 3.2 0.00 0.00 0.00 87 1011.7
20260906093850 25 153 1.6 3.2 0.00 0.00 0.00 87 1011.7
20260906093352 25 153 0.0 3.2 0.00 0.00 0.00 87 1011.7
20260906092849 25 153 1.6 3.2 0.00 0.00 0.00 87 1011.7
20260906092349 25 153 0.0 3.2 0.00 0.00 0.00 86 1011.7
20260906091846 25 153 0.0 1.6 0.00 0.00 0.00 86 1011.5
20260906091607 25 153 0.0 1.6 0.00 0.00 0.00 86 1011.5
20260906090842 25 153 0.0 1.6 0.00 0.00 0.00 86 1011.5
20260906090830 25 153 0.0 1.6 0.00 0.00 0.00 86 1011.5
20260906085842 25 153 0.0 1.6 0.00 0.00 0.00 86 1011.5
20260906085336 25 153 0.0 0.0 0.00 0.00 0.00 85 1011.5
20260906084830 25 153 0.0 0.0 0.00 0.00 0.00 85 1011.5
20260906084322 25 153 0.0 0.0 0.00 0.00 0.00 85 1011.5
20260906083816 25 153 0.0 0.0 0.00 0.00 0.00 85 1011.4
20260906083543 25 153 0.0 1.6 0.00 0.00 0.00 85 1011.4
20260906083023 25 153 0.0 1.6 0.00 0.00 0.00 85 1011.4
20260906082258 25 153 0.0 1.6 0.00 0.00 0.00 85 1011.4
20260906081752 25 153 0.0 1.6 0.00 0.00 0.00 85 1011.4
20260906081246 25 153 0.0 1.6 0.00 0.00 0.00 85 1011.4
20260906080740 25 153 0.0 1.6 0.00 0.00 0.00 86 1011.4
20260906080234 25 153 0.0 1.6 0.00 0.00 0.00 86 1011.5
20260906075728 25 153 0.0 3.2 0.00 0.00 0.00 86 1011.5
20260906075229 25 153 0.0 3.2 0.00 0.00 0.00 87 1011.4
20260906074726 25 153 0.0 1.6 0.00 0.00 0.00 87 1011.4
20260906074223 25 153 0.0 1.6 0.00 0.00 0.00 87 1011.3
20260906073729 25 153 0.0 0.0 0.00 0.00 0.00 87 1011.3
20260906073317 25 153 0.0 0.0 0.00 0.00 0.00 87 1011.3
20260906072445 25 153 0.0 0.0 0.00 0.00 0.00 87 1011.3
20260906072214 25 153 0.0 0.0 0.00 0.00 0.00 87 1011.3
20260906071218 25 153 0.0 0.0 0.00 0.00 0.00 88 1011.3
20260906070715 25 153 0.0 1.6 0.00 0.00 0.00 88 1011.3
20260906070214 25 153 0.0 3.2 0.00 0.00 0.00 88 1011.2
20260906065941 25 153 0.0 3.2 0.00 0.00 0.00 88 1011.2
20260906065215 25 153 0.0 1.6 0.00 0.00 0.00 87 1011.2
20260906064941 25 153 0.0 0.0 0.00 0.00 0.00 87 1011.2
20260906064214 25 153 0.0 0.0 0.00 0.00 0.00 87 1011.2
20260906063712 25 153 0.0 0.0 0.00 0.00 0.00 87 1011.2
20260906063209 25 153 0.0 0.0 0.00 0.00 0.00 86 1011.2
20260906062709 25 153 0.0 0.0 0.00 0.00 0.00 86 1011.3
20260906062202 25 153 0.0 0.0 0.00 0.00 0.00 86 1011.3
20260906061702 25 153 0.0 0.0 0.00 0.00 0.00 85 1011.4
20260906061159 25 153 0.0 0.0 0.00 0.00 0.00 85 1011.5
20260906060658 25 153 0.0 0.0 0.00 0.00 0.00 85 1011.6
20260906060158 25 153 0.0 0.0 0.00 0.00 0.00 86 1011.6
20260906055656 25 153 0.0 0.0 0.00 0.00 0.00 85 1011.6
20260906055156 25 153 0.0 1.6 0.00 0.00 0.00 85 1011.6
20260906054654 26 153 0.0 1.6 0.00 0.00 0.00 85 1011.6
20260906054153 26 153 0.0 1.6 0.00 0.00 0.00 85 1011.7
20260906053928 26 153 0.0 1.6 0.00 0.00 0.00 85 1011.8
20260906053159 26 153 0.0 0.0 0.00 0.00 0.00 86 1011.7
20260906052657 26 153 0.0 1.6 0.00 0.00 0.00 86 1011.7
20260906052157 26 153 0.0 1.6 0.00 0.00 0.00 86 1011.6
20260906051923 26 153 0.0 0.0 0.00 0.00 0.00 85 1011.6
20260906051154 26 153 0.0 0.0 0.00 0.00 0.00 84 1011.6
20260906050651 26 153 0.0 0.0 0.00 0.00 0.00 84 1011.6
20260906050418 26 153 0.0 0.0 0.00 0.00 0.00 84 1011.6
20260906045646 26 153 0.0 0.0 0.00 0.00 0.00 83 1011.6
20260906045140 26 153 0.0 0.0 0.00 0.00 0.00 84 1011.5
20260906045126 26 153 0.0 0.0 0.00 0.00 0.00 84 1011.5
20260906044133 26 153 0.0 0.0 0.00 0.00 0.00 84 1011.5
20260906043632 26 153 0.0 1.6 0.00 0.00 0.00 83 1011.5
20260906043130 26 153 0.0 1.6 0.00 0.00 0.00 83 1011.4
20260906042630 26 153 0.0 1.6 0.00 0.00 0.00 83 1011.5
20260906042128 26 153 0.0 1.6 0.00 0.00 0.00 82 1011.5
20260906041629 26 153 0.0 0.0 0.00 0.00 0.00 82 1011.4
20260906041131 26 153 0.0 1.6 0.00 0.00 0.00 82 1011.5
20260906040848 27 153 0.0 1.6 0.00 0.00 0.00 82 1011.5
20260906040128 27 153 0.0 0.0 0.00 0.00 0.00 82 1011.5
20260906035623 27 153 0.0 0.0 0.00 0.00 0.00 82 1011.5
20260906035124 27 153 0.0 0.0 0.00 0.00 0.00 82 1011.5
20260906034622 27 153 0.0 0.0 0.00 0.00 0.00 80 1011.5
20260906034120 27 153 0.0 0.0 0.00 0.00 0.00 80 1011.5
20260906033619 27 153 0.0 0.0 0.00 0.00 0.00 80 1011.5
20260906033120 27 153 0.0 0.0 0.00 0.00 0.00 80 1011.5
20260906032854 27 153 0.0 0.0 0.00 0.00 0.00 80 1011.7
20260906032116 27 153 0.0 1.6 0.00 0.00 0.00 79 1011.7
20260906031616 27 153 0.0 1.6 0.00 0.00 0.00 79 1011.6
20260906031338 27 153 0.0 0.0 0.00 0.00 0.00 78 1011.6
20260906030603 27 153 0.0 0.0 0.00 0.00 0.00 78 1011.5
20260906030058 28 153 0.0 1.6 0.00 0.00 0.00 77 1011.5
20260906025552 28 153 0.0 3.2 0.00 0.00 0.00 77 1011.5
20260906025316 28 153 0.0 3.2 0.00 0.00 0.00 77 1011.5
20260906024549 28 153 0.0 0.0 0.00 0.00 0.00 77 1011.4
20260906024053 28 153 0.0 0.0 0.00 0.00 0.00 77 1011.4
20260906023552 28 153 0.0 0.0 0.00 0.00 0.00 76 1011.4
20260906023049 28 153 0.0 0.0 0.00 0.00 0.00 76 1011.4
20260906022549 28 153 0.0 0.0 0.00 0.00 0.00 76 1011.3
20260906022314 28 153 0.0 0.0 0.00 0.00 0.00 76 1011.3
20260906021548 28 153 0.0 0.0 0.00 0.00 0.00 74 1011.3
20260906021048 29 153 0.0 0.0 0.00 0.00 0.00 74 1011.2
20260906020546 29 153 0.0 1.6 0.00 0.00 0.00 73 1011.1
20260906020046 29 153 0.0 1.6 0.00 0.00 0.00 73 1011.0
20260906015545 29 153 0.0 1.6 0.00 0.00 0.00 73 1011.0
20260906015044 29 153 0.0 0.0 0.00 0.00 0.00 74 1010.9
20260906014544 30 153 0.0 0.0 0.00 0.00 0.00 72 1010.9
20260906014041 30 153 0.0 0.0 0.00 0.00 0.00 71 1010.8
20260906013545 30 153 0.0 1.6 0.00 0.00 0.00 70 1010.9
20260906013038 30 153 0.0 1.6 0.00 0.00 0.00 69 1010.8
20260906012532 30 153 0.0 0.0 0.00 0.00 0.00 68 1010.8
20260906012252 31 153 0.0 0.0 0.00 0.00 0.00 67 1010.7
20260906011526 31 153 0.0 1.6 0.00 0.00 0.00 67 1010.7
20260906011020 31 153 0.0 1.6 0.00 0.00 0.00 66 1010.6
20260906010742 31 153 0.0 0.0 0.00 0.00 0.00 65 1010.5
20260906010021 31 153 0.0 0.0 0.00 0.00 0.00 65 1010.5
20260906005523 31 153 0.0 1.6 0.00 0.00 0.00 64 1010.5
20260906005244 32 153 0.0 1.6 0.00 0.00 0.00 64 1010.4
20260906004519 32 153 0.0 1.6 0.00 0.00 0.00 63 1010.4
20260906004019 32 153 0.0 0.0 0.00 0.00 0.00 62 1010.4
20260906003737 33 153 0.0 1.6 0.00 0.00 0.00 62 1010.3
20260906003022 33 153 0.0 1.6 0.00 0.00 0.00 60 1010.4
20260906002521 33 153 0.0 0.0 0.00 0.00 0.00 59 1010.4
20260906002241 33 153 0.0 1.6 0.00 0.00 0.00 58 1010.4
20260906001736 34 153 0.0 1.6 0.00 0.00 0.00 58 1010.4
20260906001016 34 153 0.0 1.6 0.00 0.00 0.00 58 1010.4
20260906000515 35 153 0.0 1.6 0.00 0.00 0.00 58 1010.4
20260906000016 35 153 0.0 1.6 0.00 0.00 0.00 55 1010.4
20260905235514 36 153 0.0 1.6 0.00 0.00 0.00 52 1010.4
20260905235008 36 153 0.0 1.6 0.00 0.00 0.00 52 1010.4
20260905234502 36 153 0.0 3.2 0.00 0.00 0.00 49 1010.4
20260905233957 36 153 0.0 3.2 0.00 0.00 0.00 50 1010.4
20260905233457 36 148 0.0 3.2 0.00 0.00 0.00 49 1010.5
20260905232957 35 148 1.6 4.8 0.00 0.00 0.00 50 1010.5
20260905232721 35 148 1.6 4.8 0.00 0.00 0.00 49 1010.5
20260905231957 36 120 1.6 4.8 0.00 0.00 0.00 49 1010.5
20260905231458 36 133 1.6 3.2 0.00 0.00 0.00 49 1010.5
20260905230958 36 133 1.6 3.2 0.00 0.00 0.00 49 1010.5
20260905230455 36 133 0.0 3.2 0.00 0.00 0.00 47 1010.5
20260905225953 36 133 1.6 4.8 0.00 0.00 0.00 48 1010.5
20260905225454 36 133 1.6 4.8 0.00 0.00 0.00 47 1010.5
20260905224954 36 119 1.6 4.8 0.00 0.00 0.00 48 1010.6
20260905224453 36 118 1.6 4.8 0.00 0.00 0.00 48 1010.6
20260905223953 36 90 1.6 4.8 0.00 0.00 0.00 48 1010.6
20260905223454 36 67 3.2 6.4 0.00 0.00 0.00 47 1010.6
20260905223210 36 130 3.2 8.0 0.00 0.00 0.00 45 1010.7
20260905222715 36 136 3.2 8.0 0.00 0.00 0.00 46 1010.6
20260905222430 36 157 3.2 4.8 0.00 0.00 0.00 46 1010.6
20260905221444 36 66 3.2 6.4 0.00 0.00 0.00 45 1010.5
20260905220946 36 113 3.2 6.4 0.00 0.00 0.00 45 1010.7
20260905220442 36 123 3.2 6.4 0.00 0.00 0.00 46 1010.7
20260905215943 36 109 3.2 6.4 0.00 0.00 0.00 46 1010.7
20260905215444 36 84 3.2 9.7 0.00 0.00 0.00 47 1010.8
20260905214942 36 79 3.2 9.7 0.00 0.00 0.00 48 1010.8
20260905214439 35 105 3.2 9.7 0.00 0.00 0.00 46 1010.9
20260905213938 35 103 3.2 9.7 0.00 0.00 0.00 46 1010.8
20260905213437 35 62 3.2 6.4 0.00 0.00 0.00 50 1010.8
20260905212938 35 107 3.2 9.7 0.00 0.00 0.00 52 1010.8
20260905212707 34 5 4.8 11.3 0.00 0.00 0.00 52 1010.8
20260905211936 33 111 6.4 14.5 0.00 0.00 0.00 53 1011.0
20260905211705 33 90 6.4 14.5 0.00 0.00 0.00 52 1011.1
20260905210936 34 117 6.4 14.5 0.00 0.00 0.00 54 1011.1
20260905210434 34 74 6.4 12.9 0.00 0.00 0.00 54 1011.1
20260905205935 35 109 6.4 12.9 0.00 0.00 0.00 53 1011.3
20260905205434 35 111 3.2 11.3 0.00 0.00 0.00 52 1011.3
20260905204935 34 121 3.2 9.7 0.00 0.00 0.00 53 1011.2
20260905204434 34 127 3.2 9.7 0.00 0.00 0.00 52 1011.3
20260905203935 34 94 4.8 11.3 0.00 0.00 0.00 53 1011.3
20260905203435 35 123 4.8 12.9 0.00 0.00 0.00 52 1011.4
20260905202933 35 101 4.8 14.5 0.00 0.00 0.00 51 1011.5
20260905202433 36 73 6.4 14.5 0.00 0.00 0.00 50 1011.6
20260905201934 36 343 8.0 22.5 0.00 0.00 0.00 49 1011.6
20260905201433 37 200 6.4 22.5 0.00 0.00 0.00 46 1011.7
20260905200934 39 75 1.6 8.0 0.00 0.00 0.00 40 1011.7
20260905200434 39 232 1.6 8.0 0.00 0.00 0.00 41 1011.5
20260905195934 38 171 3.2 6.4 0.00 0.00 0.00 43 1011.6
20260905195434 38 38 3.2 6.4 0.00 0.00 0.00 43 1011.7
20260905194934 37 198 3.2 8.0 0.00 0.00 0.00 44 1011.8
20260905194435 37 81 4.8 9.7 0.00 0.00 0.00 45 1011.9
20260905193932 36 113 4.8 12.9 0.00 0.00 0.00 46 1012.0
20260905193430 36 86 4.8 12.9 0.00 0.00 0.00 46 1012.1
20260905192932 36 63 4.8 11.3 0.00 0.00 0.00 45 1012.1
20260905192429 37 99 4.8 11.3 0.00 0.00 0.00 44 1012.2
20260905191930 37 105 4.8 11.3 0.00 0.00 0.00 43 1012.2
20260905191429 37 83 3.2 8.0 0.00 0.00 0.00 43 1012.3
20260905190930 37 167 3.2 9.7 0.00 0.00 0.00 43 1012.3
20260905190429 37 90 3.2 9.7 0.00 0.00 0.00 42 1012.4
20260905190415 38 42 4.8 11.3 0.00 0.00 0.00 42 1012.5
20260905185428 38 74 3.2 12.9 0.00 0.00 0.00 42 1012.4
20260905184931 38 80 3.2 12.9 0.00 0.00 0.00 41 1012.4
20260905184432 38 36 4.8 12.9 0.00 0.00 0.00 40 1012.6
20260905183926 38 17 4.8 12.9 0.00 0.00 0.00 45 1012.5
20260905183419 38 304 4.8 12.9 0.00 0.00 0.00 41 1012.5
20260905183130 38 327 3.2 9.7 0.00 0.00 0.00 42 1012.6
20260905182633 38 40 3.2 8.0 0.00 0.00 0.00 43 1012.7
20260905181911 38 92 3.2 8.0 0.00 0.00 0.00 44 1012.7
20260905181413 38 317 4.8 12.9 0.00 0.00 0.00 43 1012.7
20260905180912 37 108 6.4 14.5 0.00 0.00 0.00 42 1012.8
20260905180408 37 86 4.8 14.5 0.00 0.00 0.00 43 1012.8
20260905175908 38 83 3.2 14.5 0.00 0.00 0.00 43 1012.9
20260905175406 38 19 4.8 14.5 0.00 0.00 0.00 41 1013.0
20260905174906 38 77 4.8 11.3 0.00 0.00 0.00 44 1013.0
20260905174404 38 59 4.8 9.7 0.00 0.00 0.00 43 1013.1
20260905173905 38 23 4.8 11.3 0.00 0.00 0.00 46 1013.1
20260905173404 38 0 4.8 11.3 0.00 0.00 0.00 44 1013.1
20260905173127 38 122 4.8 17.7 0.00 0.00 0.00 42 1013.1
20260905172404 38 355 4.8 17.7 0.00 0.00 0.00 44 1013.0
20260905172135 38 260 3.2 14.5 0.00 0.00 0.00 44 1013.2
20260905171405 38 55 3.2 12.9 0.00 0.00 0.00 44 1013.3
20260905170903 38 234 3.2 12.9 0.00 0.00 0.00 45 1013.4
20260905170405 38 66 3.2 9.7 0.00 0.00 0.00 46 1013.5
20260905170117 37 60 4.8 9.7 0.00 0.00 0.00 48 1013.6
20260905165358 37 78 4.8 9.7 0.00 0.00 0.00 46 1013.6
20260905164901 37 34 4.8 9.7 0.00 0.00 0.00 47 1013.6
20260905164404 37 94 4.8 12.9 0.00 0.00 0.00 51 1013.7
20260905163858 36 71 4.8 12.9 0.00 0.00 0.00 48 1013.8
20260905163357 37 67 4.8 12.9 0.00 0.00 0.00 50 1013.8
20260905162856 37 24 3.2 12.9 0.00 0.00 0.00 50 1013.8
20260905162356 37 82 3.2 9.7 0.00 0.00 0.00 49 1013.9
20260905161856 37 22 3.2 6.4 0.00 0.00 0.00 50 1013.9
20260905161356 37 340 3.2 8.0 0.00 0.00 0.00 51 1014.0
20260905160855 36 86 3.2 8.0 0.00 0.00 0.00 53 1014.1
20260905160620 37 104 3.2 9.7 0.00 0.00 0.00 50 1014.1
20260905155854 36 348 3.2 9.7 0.00 0.00 0.00 54 1014.1
20260905155358 36 69 1.6 6.4 0.00 0.00 0.00 51 1014.1
20260905154854 37 329 3.2 8.0 0.00 0.00 0.00 52 1014.2
20260905154355 36 303 3.2 8.0 0.00 0.00 0.00 53 1014.1
20260905154117 36 73 3.2 9.7 0.00 0.00 0.00 52 1014.2
20260905153348 35 19 3.2 9.7 0.00 0.00 0.00 54 1014.1
20260905152846 35 25 3.2 8.0 0.00 0.00 0.00 53 1014.1
20260905152346 35 329 3.2 6.4 0.00 0.00 0.00 55 1014.0
20260905152105 35 46 3.2 6.4 0.00 0.00 0.00 53 1014.0
20260905151343 35 72 3.2 6.4 0.00 0.00 0.00 54 1014.1
20260905151102 35 23 3.2 6.4 0.00 0.00 0.00 54 1014.1
20260905150829 35 38 3.2 4.8 0.00 0.00 0.00 56 1014.1
20260905145843 34 54 1.6 6.4 0.00 0.00 0.00 58 1014.2
20260905145344 33 30 1.6 6.4 0.00 0.00 0.00 60 1014.1
20260905144842 33 42 3.2 4.8 0.00 0.00 0.00 58 1014.1
20260905144340 34 38 1.6 4.8 0.00 0.00 0.00 58 1014.1
20260905143839 34 274 1.6 4.8 0.00 0.00 0.00 59 1014.1
20260905143557 34 346 3.2 4.8 0.00 0.00 0.00 60 1014.1
20260905143324 33 267 3.2 6.4 0.00 0.00 0.00 60 1014.1
20260905142336 33 254 3.2 6.4 0.00 0.00 0.00 59 1014.1
20260905141836 34 269 1.6 6.4 0.00 0.00 0.00 58 1014.1
20260905141337 34 342 1.6 6.4 0.00 0.00 0.00 61 1014.1
20260905140833 33 304 1.6 6.4 0.00 0.00 0.00 59 1014.1
20260905140333 33 238 1.6 4.8 0.00 0.00 0.00 61 1014.1
20260905140103 33 307 0.0 4.8 0.00 0.00 0.00 63 1014.0
20260905135327 32 213 1.6 4.8 0.00 0.00 0.00 65 1014.0
20260905134820 32 221 0.0 3.2 0.00 0.00 0.00 64 1014.0
20260905134536 32 194 0.0 3.2 0.00 0.00 0.00 67 1014.0
20260905133809 31 200 1.6 3.2 0.00 0.00 0.00 69 1013.9
20260905133527 30 172 1.6 4.8 0.00 0.00 0.00 70 1014.0
20260905132805 30 270 1.6 4.8 0.00 0.00 0.00 69 1013.9
20260905132306 30 226 1.6 4.8 0.00 0.00 0.00 69 1013.9
20260905131803 30 207 1.6 4.8 0.00 0.00 0.00 72 1013.9